Погода в Козлове

Украина / Тернопольская область     49˚33′43″N   25˚20′26″E
темп.,
°C
ветер,
м/с
пор.,
м/с
влажн.,
%
обл.,
%
осадки,
мм/ч
давл.,
гПа
погр.,
м
6 декабря, вс
вс623:00+5˚юв9158678 0.0 1022635
02:00+5˚юв8148689 0.0 1023646
05:00+4˚юв81486100 0.0 1022664
08:00+3˚юв91586100 0.0 1023758
11:00+3˚юв101682100 0.0 1023763
14:00+3˚юв10167997 0.0 1022777
17:00+1˚юв10178080 0.0 1022730
20:00юв10197679 0.0 1023692
7 декабря, пн
пн723:00−1˚юв11197363 0.0 1022703
02:00−1˚юв11206940 0.0 1022690
05:00−2˚юв1119700 0.0 1021725
08:00−3˚юв1120710 0.0 1021696
11:00−2˚юв12197067 0.0 1020738
14:00юв11196034 0.0 1020804
17:00−3˚юв1017670 0.0 1021681
20:00−4˚юв10177220 0.0 1021738
8 декабря, вт
вт823:00−3˚юв10177897 0.0 1021806
02:00−3˚юв10178299 0.0 1021783
05:00−2˚юв91580100 0.0 1020769
08:00−2˚юв91486100 0.1 1021766
11:00−3˚юв81377100 0.0 1021572
14:00−2˚юв7127394 0.0 1020628
17:00−2˚юв7128399 0.1 1021587
20:00−3˚юв71291100 0.4 1022544
9 декабря, ср
ср923:00−3˚юв7128799 0.1 1021530
02:00−2˚юв71287100 0.1 1022580
05:00−2˚вюв61186100 0.0 1021449
08:00−3˚юв61184100 0.0 1021447
11:00−2˚вюв61183100 0.0 1021428
14:00юв71184100 0.0 1019612
17:00вюв71487100 0.0 1018476
20:00−1˚юв81489100 0.0 1018614
10 декабря, чт
чт1023:00вюв81591100 0.0 1018558
02:00+1˚юв81594100 0.0 1017710
05:00+2˚юв81793100 0.1 1015612
08:00+2˚юв81596100 0.4 1015514
11:00+3˚вюв61397100 1.6 1015391
14:00+3˚юв41098100 1.6 1013328
17:00+4˚вюв41099100 0.0 1013250
20:00+5˚вюв71397100 0.6 1012447